Погода в Каражале

Казахстан     48°00′03″N   70°47′08″E
темп.,
°C
ветер,
м/с
пор.,
м/с
влажн.,
%
обл.,
%
осадки,
мм/ч
давл.,
гПа
погр.,
м
2 марта, вт
вт200:00−2юз5896100 0.1 1019231
03:00−2юз3698100 1.3 1019207
06:00−2юз3597100 1.8 1018126
09:00−3з4797100 0.4 1018305
12:00−4з61095100 1.5 1019456
15:00−5зюз7118998 0.4 1019565
18:00−9зюз6119065 0.4 1022507
21:00−13зюз5109696 0.0 1024223
3 марта, ср
ср300:00−15юз599775 0.0 1026147
03:00−16юз599896 0.0 1027159
06:00−16юз599898 0.1 1027173
09:00−16юз599792 0.0 1028173
12:00−11юз689071 0.0 1028316
15:00−9ююз698970 0.0 1027355
18:00−9ююз598935 0.0 1026205
21:00−11ю58880 0.0 1027118
4 марта, чт
чт400:00−11ю58850 0.0 1027119
03:00−11ю611830 0.0 1025146
06:00−10ю712821 0.0 1025179
09:00−9ю8148140 0.0 1024253
12:00−6ю9158435 0.0 1022366
15:00−3ю8139199 0.0 1019483
18:00−1ю7109099 0.0 1017547
21:00−2ю4897100 0.8 1016301
5 марта, пт
пт500:00−2ююз3698100 2.1 1016183
03:00−4зсз61196100 1.3 1017405
06:00−9з599574 1.3 1024147
09:00−12зюз489535 0.0 1030143
12:00−9юз689117 0.0 1033296
15:00−7юз69880 0.0 1033348
18:00−9ююз58910 0.0 1032206
21:00−11ю57883 0.0 103292
6 марта, сб
сб600:00−12ю57871 0.0 103283
03:00−12ю45880 0.0 103051
06:00−12ю45900 0.0 102947
09:00−11ю47870 0.0 102897
12:00−6ююв34859 0.0 1026160
15:00−3ююв2380100 0.0 1024254
18:00−5всв2285100 0.0 102321
21:00−8вюв2386100 0.0 102321